Date String (YYYY-MM-DD hh:mm:ss) UTC,Instrument flags,Ambient pressure (hPa),Sample flow (lpm),Bypass flow (lpm),Sample temperature (°C),Ambient temperature (°C),ASC tube jacket temperature (°C),LED temperature (°C),Box temperature (°C),Sample RH (%),Span deviation,Mass concentration (μg/m³),Mass concentration (μg/m³),Mass concentration (μg/m³)
DateTimeUTC,F1_M11,P_M11,Q1_M11,Q2_M11,T1_M11,T2_M11,T3_M11,T4_M11,T5_M11,U1_M11,ZSPAN_M11,X0_M11,X2_M11,X1_M11
2021-11-11 06:00:00,,0826.0,5.00,0.00,23.5,22.5,00.0,32.7,25.2,09.5,0000.0,0008.11,0003.70,0003.05
2021-11-11 06:01:00,,0825.8,5.00,0.00,23.5,22.5,00.0,32.6,25.1,09.5,0000.0,0007.64,0003.72,0003.06
2021-11-11 06:02:00,,0826.0,4.99,0.00,23.5,22.5,00.0,32.6,25.2,09.7,0000.0,0007.62,0003.73,0003.07
2021-11-11 06:03:00,,0826.1,5.01,0.00,23.5,22.5,00.0,32.6,25.1,09.8,0000.0,0007.54,0003.70,0003.08
2021-11-11 06:04:00,,0826.0,5.00,0.00,23.4,22.4,00.0,32.6,25.0,09.8,0000.0,0007.48,0003.68,0003.08
2021-11-11 06:05:00,,0826.1,4.99,0.00,23.4,22.4,00.0,32.6,25.0,09.8,0000.0,0007.41,0003.65,0003.08
2021-11-11 06:06:00,,0826.1,5.01,0.00,23.4,22.4,00.0,32.6,25.0,09.9,0000.0,0007.34,0003.62,0003.07
2021-11-11 06:07:00,,0826.2,5.00,0.00,23.4,22.4,00.0,32.6,25.0,10.0,0000.0,0007.38,0003.63,0003.08
2021-11-11 06:08:00,,0826.2,5.00,0.00,23.4,22.3,00.0,32.6,25.0,10.0,0000.0,0007.34,0003.61,0003.06
2021-11-11 06:09:00,,0826.2,5.01,0.00,23.3,22.2,00.0,32.5,24.9,10.0,0000.0,0007.29,0003.60,0003.07
2021-11-11 06:10:00,,0826.2,5.00,0.00,23.3,22.2,00.0,32.5,24.9,10.1,0000.0,0006.60,0003.60,0003.06
2021-11-11 06:11:00,,0826.2,5.00,0.00,23.3,22.1,00.0,32.5,24.9,10.1,0000.0,0006.18,0003.58,0003.05
2021-11-11 06:12:00,,0826.1,5.00,0.00,23.3,22.1,00.0,32.5,24.9,10.2,0000.0,0006.12,0003.55,0003.02
2021-11-11 06:13:00,,0826.2,5.01,0.00,23.3,22.1,00.0,32.5,24.9,10.1,0000.0,0006.04,0003.50,0002.97
2021-11-11 06:14:00,,0826.2,5.00,0.00,23.3,22.1,00.0,32.5,24.9,10.1,0000.0,0006.09,0003.50,0002.94
2021-11-11 06:15:00,,0826.2,5.00,0.00,23.3,22.2,00.0,32.5,24.9,10.0,0000.0,0006.18,0003.49,0002.89
2021-11-11 06:16:00,,0826.3,5.00,0.00,23.3,22.1,00.0,32.4,24.9,10.0,0000.0,0006.04,0003.47,0002.86
2021-11-11 06:17:00,,0826.5,5.00,0.00,23.2,22.0,00.0,32.4,24.8,10.3,0000.0,0006.23,0003.46,0002.84
2021-11-11 06:18:00,,0826.3,5.00,0.00,23.2,22.0,00.0,32.4,24.7,10.2,0000.0,0007.22,0003.43,0002.81
2021-11-11 06:19:00,,0826.3,5.00,0.00,23.2,22.0,00.0,32.4,24.8,09.8,0000.0,0007.20,0003.42,0002.79
2021-11-11 06:20:00,,0826.2,5.01,0.00,23.2,22.0,00.0,32.4,24.8,09.8,0000.0,0007.16,0003.41,0002.76
2021-11-11 06:21:00,,0826.2,5.00,0.00,23.2,22.0,00.0,32.4,24.8,09.6,0000.0,0006.99,0003.39,0002.75
2021-11-11 06:22:00,,0826.4,5.00,0.00,23.1,21.9,00.0,32.3,24.7,09.7,0000.0,0006.89,0003.39,0002.74
2021-11-11 06:23:00,,0826.2,5.00,0.00,23.1,22.0,00.0,32.3,24.8,09.7,0000.0,0006.93,0003.42,0002.76
2021-11-11 06:24:00,,0826.4,4.99,0.00,23.1,21.9,00.0,32.3,24.7,09.8,0000.0,0007.01,0003.45,0002.77
2021-11-11 06:25:00,,0826.2,5.00,0.00,23.1,21.9,00.0,32.3,24.6,10.0,0000.0,0007.11,0003.47,0002.78
2021-11-11 06:26:00,,0826.2,5.02,0.00,23.1,21.9,00.0,32.3,24.6,09.8,0000.0,0007.05,0003.47,0002.79
2021-11-11 06:27:00,,0826.2,4.98,0.00,23.0,21.9,00.0,32.3,24.6,09.5,0000.0,0007.04,0003.47,0002.82
2021-11-11 06:28:00,,0826.4,5.01,0.00,23.0,21.9,00.0,32.2,24.6,09.6,0000.0,0007.23,0003.48,0002.84
2021-11-11 06:29:00,,0826.4,5.00,0.00,23.0,21.9,00.0,32.2,24.6,09.6,0000.0,0006.33,0003.48,0002.86
2021-11-11 06:30:00,,0826.3,4.99,0.00,23.0,21.9,00.0,32.2,24.6,09.4,0000.0,0006.45,0003.49,0002.89
2021-11-11 06:31:00,,0826.4,5.00,0.00,23.0,21.9,00.0,32.2,24.6,09.3,0000.0,0006.61,0003.53,0002.94
2021-11-11 06:32:00,,0826.3,5.00,0.00,23.0,21.9,00.0,32.2,24.6,09.3,0000.0,0006.75,0003.57,0002.98
2021-11-11 06:33:00,,0826.4,5.01,0.00,23.0,21.9,00.0,32.2,24.6,09.1,0000.0,0006.90,0003.59,0003.01
2021-11-11 06:34:00,,0826.2,5.00,0.00,23.0,21.9,00.0,32.2,24.7,09.1,0000.0,0006.96,0003.62,0003.03
2021-11-11 06:35:00,,0826.4,4.99,0.00,23.0,21.9,00.0,32.2,24.7,09.1,0000.0,0006.96,0003.62,0003.05
2021-11-11 06:36:00,,0826.5,4.99,0.00,22.9,21.9,00.0,32.2,24.7,09.2,0000.0,0006.96,0003.64,0003.10
2021-11-11 06:37:00,,0826.5,5.00,0.00,22.9,21.9,00.0,32.1,24.7,09.1,0000.0,0007.36,0003.67,0003.13
2021-11-11 06:38:00,,0826.5,5.01,0.00,22.9,21.9,00.0,32.1,24.7,09.0,0000.0,0007.40,0003.68,0003.15
2021-11-11 06:39:00,,0826.5,4.99,0.00,22.9,21.9,00.0,32.1,24.6,08.9,0000.0,0007.18,0003.71,0003.16
2021-11-11 06:40:00,,0826.5,5.00,0.00,22.9,21.9,00.0,32.1,24.6,08.8,0000.0,0007.03,0003.73,0003.17
2021-11-11 06:41:00,,0826.7,5.00,0.00,22.9,21.9,00.0,32.1,24.5,08.8,0000.0,0006.89,0003.74,0003.17
2021-11-11 06:42:00,,0826.7,5.01,0.00,22.9,21.8,00.0,32.1,24.4,08.8,0000.0,0006.85,0003.73,0003.18
2021-11-11 06:43:00,,0826.8,4.99,0.00,22.9,21.8,00.0,32.0,24.5,08.9,0000.0,0006.85,0003.70,0003.18
2021-11-11 06:44:00,,0826.8,5.01,0.00,22.9,21.7,00.0,32.0,24.5,08.9,0000.0,0006.62,0003.70,0003.18
2021-11-11 06:45:00,,0826.7,5.01,0.00,22.9,21.8,00.0,32.0,24.5,08.8,0000.0,0006.71,0003.70,0003.17
2021-11-11 06:46:00,,0826.6,4.99,0.00,22.9,21.8,00.0,32.0,24.5,08.9,0000.0,0007.62,0003.74,0003.17
2021-11-11 06:47:00,,0826.8,4.99,0.00,22.9,21.8,00.0,32.0,24.5,09.2,0000.0,0007.76,0003.74,0003.17
2021-11-11 06:48:00,,0826.9,5.01,0.00,22.9,21.8,00.0,32.0,24.6,09.1,0000.0,0007.64,0003.72,0003.16
2021-11-11 06:49:00,,0826.9,4.99,0.00,22.9,21.9,00.0,32.0,24.6,09.3,0000.0,0007.56,0003.70,0003.14
2021-11-11 06:50:00,,0826.9,5.00,0.00,22.9,21.9,00.0,32.0,24.7,09.7,0000.0,0007.46,0003.67,0003.14
2021-11-11 06:51:00,,0827.0,4.99,0.00,22.9,22.0,00.0,32.0,24.6,09.7,0000.0,0007.37,0003.66,0003.15
2021-11-11 06:52:00,,0827.0,5.00,0.00,23.0,22.0,00.0,32.0,24.7,09.5,0000.0,0007.38,0003.66,0003.15
2021-11-11 06:53:00,,0827.0,5.00,0.00,23.0,22.1,00.0,32.0,24.8,09.5,0000.0,0007.30,0003.64,0003.13
2021-11-11 06:54:00,,0827.3,5.00,0.00,23.0,22.1,00.0,32.0,24.8,09.6,0000.0,0007.66,0003.62,0003.13
2021-11-11 06:55:00,,0827.0,4.99,0.00,23.0,22.2,00.0,32.0,24.8,10.1,0000.0,0007.92,0003.65,0003.14
2021-11-11 06:56:00,,0827.3,5.02,0.00,23.0,22.2,00.0,32.0,24.9,10.4,0000.0,0007.92,0003.67,0003.17
2021-11-11 06:57:00,,0827.2,4.99,0.00,23.0,22.2,00.0,32.0,24.9,10.5,0000.0,0007.41,0003.66,0003.18
2021-11-11 06:58:00,,0827.2,5.00,0.00,23.0,22.2,00.0,32.0,24.8,10.7,0000.0,0008.40,0003.69,0003.19
2021-11-11 06:59:00,,0827.2,5.00,0.00,23.0,22.2,00.0,32.0,24.8,10.8,0000.0,0008.91,0003.78,0003.23
